Joliet, IL

7:49 AM CDT on May 24, 2018 (GMT -0500)
Joliet Regional

Weather History for KJOT - November, 2012

Change the Weather History Date:

Wednesday, November 7, 2012

  Actual Average (KARR) Record (KARR)
Temperature  
Mean Temperature 42 °F -  
Max Temperature 45 °F 49 °F 71 °F (2001)
Min Temperature 39 °F 30 °F 17 °F (1998)
Degree Days  
Heating Degree Days 23    
Moisture  
Dew Point 39 °F    
Average Humidity 88    
Maximum Humidity 98    
Minimum Humidity 75    
Precipitation  
Precipitation 0.06 in - - ()
Sea Level Pressure  
Sea Level Pressure 30.05 in    
Wind  
Wind Speed 2 mph (NE)    
Max Wind Speed 7 mph    
Max Gust Speed -    
Visibility 4 miles    
Events      
Averages and records for this station are not official NWS values.
T = Trace of Precipitation, MM = Missing Value Source: NWS Daily Summary

Daily Weather History Graph

Daily Weather History Graph

Search for Another Location

Airport or City:

Astronomy

Nov. 07, 2012 Rise Set
Actual Time 6:32 AM CST 4:39 PM CST
Civil Twilight 6:03 AM CST 5:09 PM CST
Nautical Twilight 5:30 AM CST 5:42 PM CST
Astronomical Twilight 4:57 AM CST 6:14 PM CST
Moon No Moon Rise 12:53 PM CST (11/7)
Length of Visible Light 11h 06m
Length of Day
10h 07m
Last Quarter, 43% of the Moon is Illuminated
Nov 7
Last Quarter
Nov 13
New
Nov 20
First Quarter
Nov 28
Full
Dec 6
Last Quarter

Hourly Weather History & Observations

Time (CST) Temp. Windchill Dew Point Humidity Pressure Visibility Wind Dir Wind Speed Gust Speed Precip Events Conditions
12:15 AM 39.2 °F - 38.5 °F 97% 29.87 in 1.0 mi Calm Calm - N/A   Overcast
12:35 AM 39.2 °F - 38.7 °F 98% 29.88 in 1.0 mi Calm Calm - N/A   Overcast
12:55 AM 39.4 °F 36.1 °F 38.8 °F 98% 29.88 in 1.0 mi East 4.6 mph - N/A   Overcast
1:15 AM 39.4 °F 36.1 °F 38.8 °F 98% 29.88 in 1.0 mi East 4.6 mph - N/A   Overcast
1:35 AM 39.4 °F 37.2 °F 38.7 °F 97% 29.88 in 1.2 mi East 3.5 mph - N/A   Overcast
1:55 AM 39.4 °F 37.2 °F 38.7 °F 97% 29.89 in 1.2 mi East 3.5 mph - N/A   Overcast
2:15 AM 39.4 °F 35.2 °F 38.7 °F 97% 29.89 in 1.2 mi East 5.8 mph - N/A   Overcast
2:35 AM 39.4 °F 36.1 °F 38.5 °F 97% 29.89 in 1.5 mi ENE 4.6 mph - N/A   Overcast
2:55 AM 39.4 °F 34.5 °F 38.5 °F 97% 29.89 in 1.2 mi East 6.9 mph - N/A   Overcast
3:15 AM 39.2 °F 35.0 °F 38.5 °F 97% 29.90 in 1.2 mi ENE 5.8 mph - N/A   Overcast
3:35 AM 39.4 °F 37.2 °F 38.7 °F 97% 29.90 in 1.2 mi ENE 3.5 mph - N/A   Overcast
3:55 AM 39.2 °F 37.0 °F 38.3 °F 97% 29.91 in 1.5 mi ENE 3.5 mph - N/A   Overcast
4:15 AM 39.4 °F 36.1 °F 38.3 °F 96% 29.92 in 1.5 mi ENE 4.6 mph - N/A   Overcast
4:35 AM 39.4 °F 36.1 °F 38.3 °F 96% 29.93 in 1.5 mi ENE 4.6 mph - N/A   Overcast
7:15 AM 39.6 °F 35.4 °F 38.5 °F 96% 29.99 in 1.8 mi NE 5.8 mph - N/A   Overcast
7:35 AM 39.7 °F 34.9 °F 38.3 °F 95% 30.01 in 2.0 mi NE 6.9 mph - N/A   Overcast
7:55 AM 40.1 °F 38.0 °F 38.7 °F 95% 30.02 in 2.0 mi NE 3.5 mph - N/A   Overcast
8:15 AM 40.3 °F - 38.5 °F 93% 30.03 in 2.5 mi Calm Calm - N/A   Overcast
8:35 AM 40.6 °F - 38.5 °F 92% 30.03 in 3.0 mi Calm Calm - N/A   Overcast
8:55 AM 40.8 °F - 37.6 °F 88% 30.04 in 4.0 mi Calm Calm - N/A   Scattered Clouds
9:15 AM 41.0 °F - 37.2 °F 86% 30.04 in 5.0 mi Calm Calm - N/A   Scattered Clouds
9:35 AM 41.9 °F 40.0 °F 37.8 °F 85% 30.05 in 5.0 mi ENE 3.5 mph - N/A   Mostly Cloudy
9:55 AM 42.8 °F 41.1 °F 38.1 °F 84% 30.06 in 7.0 mi East 3.5 mph - N/A   Mostly Cloudy
10:15 AM 42.8 °F - 37.4 °F 81% 30.07 in 7.0 mi Calm Calm - N/A   Scattered Clouds
10:35 AM 43.0 °F - 37.2 °F 80% 30.07 in 7.0 mi Calm Calm - N/A   Mostly Cloudy
10:55 AM 43.9 °F 42.3 °F 38.1 °F 80% 30.07 in 7.0 mi North 3.5 mph - N/A   Scattered Clouds
11:15 AM 43.7 °F - 37.9 °F 80% 30.07 in 7.0 mi Calm Calm - N/A   Clear
11:35 AM 44.2 °F - 38.5 °F 80% 30.07 in 7.0 mi Calm Calm - N/A   Clear
11:55 AM 44.1 °F 41.5 °F 37.9 °F 79% 30.07 in 7.0 mi NNW 4.6 mph - N/A   Scattered Clouds
12:15 PM 44.8 °F - 38.5 °F 79% 30.07 in 7.0 mi Calm Calm - N/A   Scattered Clouds
12:35 PM 44.8 °F 43.3 °F 38.5 °F 79% 30.06 in 7.0 mi NW 3.5 mph - N/A   Clear
12:55 PM 45.0 °F 42.6 °F 37.8 °F 76% 30.06 in 7.0 mi NNW 4.6 mph - N/A   Clear
1:15 PM 45.5 °F - 37.9 °F 75% 30.06 in 7.0 mi Calm Calm - N/A   Scattered Clouds
1:35 PM 45.5 °F 44.2 °F 38.8 °F 78% 30.06 in 7.0 mi West 3.5 mph - N/A   Scattered Clouds
1:55 PM 45.1 °F - 37.6 °F 75% 30.07 in 7.0 mi Calm Calm - N/A   Scattered Clouds
2:15 PM 45.1 °F - 37.6 °F 75% 30.08 in 7.0 mi Calm Calm - N/A   Scattered Clouds
2:35 PM 45.3 °F 42.3 °F 39.0 °F 79% 30.08 in 5.0 mi West 5.8 mph - N/A   Haze
2:55 PM 44.6 °F 42.2 °F 39.2 °F 81% 30.09 in 4.0 mi WNW 4.6 mph - N/A   Haze
3:15 PM 44.4 °F 42.0 °F 39.4 °F 82% 30.09 in 4.0 mi WNW 4.6 mph - N/A   Haze
3:35 PM 44.2 °F 41.8 °F 39.2 °F 82% 30.09 in 4.0 mi NW 4.6 mph - N/A   Haze
3:55 PM 44.2 °F - 39.2 °F 82% 30.09 in 4.0 mi Calm Calm - N/A   Haze
4:15 PM 44.2 °F - 39.2 °F 82% 30.10 in 4.0 mi Calm Calm - N/A   Haze
4:35 PM 44.1 °F - 39.2 °F 83% 30.10 in 4.0 mi Calm Calm - N/A   Haze
4:55 PM 43.9 °F - 39.0 °F 83% 30.11 in 4.0 mi Calm Calm - N/A   Haze
5:15 PM 43.9 °F - 39.2 °F 84% 30.11 in 4.0 mi Calm Calm - N/A   Haze
5:35 PM 43.7 °F - 39.2 °F 84% 30.12 in 4.0 mi Calm Calm - N/A   Haze
5:55 PM 43.9 °F - 39.2 °F 84% 30.12 in 4.0 mi Calm Calm - N/A   Haze
6:15 PM 43.7 °F - 39.6 °F 85% 30.13 in 4.0 mi Calm Calm - N/A   Scattered Clouds
6:35 PM 43.5 °F - 40.1 °F 88% 30.14 in 3.0 mi Calm Calm - N/A   Mist
6:55 PM 43.2 °F - 40.1 °F 89% 30.14 in 3.0 mi Calm Calm - N/A   Mist
7:15 PM 43.2 °F - 40.1 °F 89% 30.13 in 3.0 mi Calm Calm - N/A   Mist
7:35 PM 43.0 °F - 40.1 °F 90% 30.14 in 3.0 mi Calm Calm - N/A   Mist
7:55 PM 42.8 °F - 40.1 °F 90% 30.14 in 3.0 mi Calm Calm - N/A   Mist
8:15 PM 42.8 °F - 40.1 °F 90% 30.15 in 2.5 mi Calm Calm - N/A   Mist
8:35 PM 42.8 °F - 40.1 °F 90% 30.15 in 3.0 mi Calm Calm - N/A   Mist
8:55 PM 42.8 °F - 39.9 °F 90% 30.16 in 3.0 mi Calm Calm - N/A   Mist
9:15 PM 42.8 °F - 40.1 °F 90% 30.16 in 3.0 mi Calm Calm - N/A   Mist
9:35 PM 42.8 °F - 40.1 °F 90% 30.15 in 2.5 mi Calm Calm - N/A   Mist
9:55 PM 42.3 °F - 39.9 °F 91% 30.15 in 2.5 mi Calm Calm - N/A   Mist
10:15 PM 42.3 °F - 40.1 °F 92% 30.16 in 2.5 mi Calm Calm - N/A   Mist
10:35 PM 42.3 °F - 39.7 °F 91% 30.16 in 2.5 mi Calm Calm - N/A   Mist
10:55 PM 41.9 °F - 39.7 °F 92% 30.16 in 2.5 mi Calm Calm - N/A   Mist
11:15 PM 41.9 °F - 39.7 °F 92% 30.16 in 2.5 mi Calm Calm - N/A   Mist
11:35 PM 41.0 °F 39.0 °F 39.2 °F 93% 30.16 in 2.0 mi WSW 3.5 mph - N/A   Mist
11:55 PM 41.4 °F - 39.6 °F 93% 30.16 in 2.0 mi Calm Calm - N/A   Mist